Regional Weather Roundup
Issued by NWS Wakefield, VA

Home | Current Version | Previous Version | Graphics & Text | Print | Product List | Glossary On
Versions: 1 2 3 4 5 6 7 8 9 10 11 12 13 14 15 16 17 18 19 20 21 22 23 24 25 26 27 28 29 30 31 32 33 34 35 36 37 38 39 40 41 42 43 44 45 46 47 48 49 50
000
ASUS41 KAKQ 272214
RWRAKQ

REGIONAL WEATHER ROUNDUP
NATIONAL WEATHER SERVICE WAKEFIELD VA
600 PM EDT FRI MAR 27 2015

Note: "fair" indicates few or no clouds below 12,000 feet with no
significant weather and/or obstructions to visibility. * = Denotes
station may not report precipitation (e.g., rain,snow,etc.),
thunder or fog.

VAZ042-051-052>054-056-272300-
NORTHERN VIRGINIA

CITY           SKY/WX    TMP DP  RH WIND       PRES   REMARKS
WASH NATIONAL  PTSUNNY   51  28  41 NW12G17   29.76F
DULLES         CLOUDY    47  27  45 N8        29.76S
FORT BELVOIR   PTSUNNY   49  27  42 N6        29.77R
QUANTICO       PTSUNNY   50  29  44 NE10      29.78S
FREDERICKSBRG* PTSUNNY   49  31  50 N9        29.76S
STAFFORD*      CLOUDY    47  30  50 N7        29.80S
WARRENTON      PTSUNNY   49  36  60 N12       29.76S
CULPEPER*      CLOUDY    48  32  53 N7        29.77S
MANASSAS*      CLOUDY    48  30  49 N10       29.77S
LEESBURG*      MOSUNNY   46  30  53 N12       29.77F
WINCHESTER     CLOUDY    45  21  39 NW9G20    29.78R
FRONT ROYAL*   CLOUDY    45  28  53 N12       29.76R
LURAY*         CLOUDY    50  30  46 NW10G16   29.74S
$$

VAZ048-049-060>072-079>083-272300-
CENTRAL AND SOUTH CENTRAL VIRGINIA

CITY           SKY/WX    TMP DP  RH WIND       PRES   REMARKS
RICHMOND       LGT RAIN  43  36  76 E3        29.79R
CHESTERFIELD*  CLOUDY    43  27  52 N3        29.79S
PETERSBURG*    LGT RAIN  42  38  85 NE6       29.79S
HANOVER        CLOUDY    43  37  79 CALM      29.79S
TAPPAHANNOCK*  PTSUNNY   41  37  83 CALM      29.79R
QUINTON*       CLOUDY    39  37  93 CALM      29.79R
CHARLOTTSVILLE PTSUNNY   47  35  63 E6        29.74F
GORDONSVILLE*  MOCLDY    46  33  60 CALM      29.75S
ORANGE*        PTSUNNY   48  32  53 N3        29.76F
LOUISA*        PTSUNNY   48  36  61 N3        29.74S
BUMPASS*       CLOUDY    47  32  56 CALM      29.76R
FARMVILLE*     CLOUDY    45  39  81 SE3       29.77R
CREWE*         CLOUDY    41  36  83 MISG      29.78S
FORT PICKETT*  CLOUDY    39  37  91 CALM      29.78S
CHASE CITY*    CLOUDY    42  42 100 CALM      29.79R
CLARKSVILLE*   CLOUDY    41  37  87 CALM      29.78S
SOUTH HILL*    CLOUDY    39  37  93 CALM      29.85R
LAWRENCEVILLE* CLOUDY    39  37  93 CALM      29.80R
EMPORIA*       CLOUDY    39  36  87 NW7       29.81R
$$

VAZ088>098-272300-
SOUTHEAST VIRGINIA

CITY           SKY/WX    TMP DP  RH WIND       PRES   REMARKS
NORFOLK        LGT RAIN  41  37  86 N15G22    29.77R
VIRGINIA BEACH LGT RAIN  44  39  82 N10       29.76F
NORFOLK NAVAL  LGT RAIN  45  38  76 N17       29.78F
WEST POINT*    CLOUDY    42  38  86 N5        29.80F
SALUDA*        CLOUDY    39  37  92 N6        29.78F
NEWPORT NEWS   LGT RAIN  44  39  82 N6        29.78R
LANGLEY AFB    CLOUDY    41  37  87 NE9       29.76F
FORT EUSTIS    CLOUDY    41  41 100 VRB6      29.76R
WILLIAMSBURG*  CLOUDY    43  41  93 N7        29.78F
HR EXEC AP*    CLOUDY    43  39  87 N5        29.78R
FRANKLIN*      LGT RAIN  41  39  94 NW3       29.79R
WAKEFIELD      LGT RAIN  42  38  85 N6        29.78F
$$

VAZ020-022-025-037-045-272300-
WEST CENTRAL AND SOUTHWEST VIRGINIA

CITY           SKY/WX    TMP DP  RH WIND       PRES   REMARKS
STAUNTON*      CLOUDY    47  28  46 NE7       29.75R
WAYNESBORO*    CLOUDY    45  29  54 NE5       29.73R
HOT SPRINGS VA PTSUNNY   34  22  63 N10G20    29.68R
LYNCHBURG      CLOUDY    44  39  82 S7        29.77R
DANVILLE       CLOUDY    45  42  89 E5        29.79R
SOUTH BOSTON*  CLOUDY    41  39  90 E3        29.79S
MARTINSVILLE   CLOUDY    48  31  52 NW7       29.80R
ROANOKE        CLOUDY    49  25  39 NW6       29.76R
BLACKSBURG     CLOUDY    44  25  47 NW12G17   29.78R
DUBLIN*        CLOUDY    46  25  44 NW12G17   29.76R
MARION*        CLOUDY    42  21  42 N15G21    29.79R
HILLSVILLE*    PTSUNNY   42  23  47 NW9G15    29.73R
RICHLANDS*     CLOUDY    38  21  51 N13       29.79S
WISE*          CLOUDY    39  23  52 N9        29.82S
ABINGDON*      CLOUDY    44  24  45 N13       29.82R
$$

MDZ021>025-VAZ099-100-272300-
SOUTHERN MARYLAND AND THE DELMARVA PENINSULA

CITY           SKY/WX    TMP DP  RH WIND       PRES   REMARKS
PATUXENT RIVER CLOUDY    41  36  82 W3        29.78S
BAY BRIDGE APT   N/A     43  36  75 CALM      29.77S
LEONARDTOWN    CLOUDY    41  36  81 CALM      29.79R
DOVER          CLOUDY    44  33  65 NW7       29.72F
GEORGETOWN     CLOUDY    40  37  89 MISG      29.77R
EASTON         MOSUNNY   45  41  87 CALM      29.80R
CAMBRIDGE      CLOUDY    43  37  81 CALM      29.76F
SALISBURY      LGT RAIN  39  36  89 N3        29.78R
OCEAN CITY     LGT RAIN  38  36  92 NW7       29.78R
WALLOPS ISLAND RAIN      38  36  92 N7        29.77R FOG
ACCOMACK*      DRIZZLE   39  36  87 N7        29.77F
$$

NCZ012>017-030>032-272300-
NORTH CENTRAL AND EASTERN NORTH CAROLINA

CITY           SKY/WX    TMP DP  RH WIND       PRES   REMARKS
ROANOKE RAPIDS CLOUDY    41  37  87 N6        29.79R
RALEIGH        CLOUDY    44  40  85 NE6       29.78S
ELIZABETH CITY LGT RAIN  42  40  92 N14       29.75R
AHOSKIE*       HVY RAIN  41  39  93 N5        29.77F
EDENTON*       DRIZZLE   42  40  93 N8        29.75S
CURRITUCK*     RAIN      43  40  89 N5G18     29.76R
KILL DEVIL HLS RAIN      40  40  97 N9G17     29.74R
MANTEO         RAIN      41  39  93 N16G28    29.75R
CAPE HATTERAS  CLOUDY    44  40  85 NE18G36   29.68F
TARBORO*       LGT RAIN  43  40  91 N7        29.80R
GOLDSBORO      CLOUDY    45  45 100 N10       29.75R
WASHINGTON     DRIZZLE   43  40  90 NE9G17    29.75R
GREENVILLE     DRIZZLE   43  41  93 N17       29.78S
NEW BERN       RAIN      45  42  89 NE15      29.73S
WILMINGTON     LGT RAIN  48  46  93 N10       29.70R
$$

VAZ048-272300-
ELSEWHERE

CITY           SKY/WX    TMP DP  RH WIND       PRES   REMARKS
HARRISBURG PA  PTSUNNY   46  22  38 N13       29.76R
BALTIMORE      PTSUNNY   49  26  41 NW7G18    29.75S
ANNAPOLIS      CLOUDY    43  36  76 SE7       29.76S
ANDREWS AFB    MOSUNNY   47  30  51 N8        29.75S
PHILADELPHIA   CLOUDY    47  26  44 N8        29.75R
HENDERSON NC   LGT RAIN  40  37  90 NE7       29.78S
GREENSBORO     CLOUDY    46  36  68 CALM      29.76S
ROCKY MOUNT    CLOUDY    44  40  85 N10       29.78R
$$

VAZ100-272300-
MARINE

STATION/POSITION TIME  TEMP    WIND        PRES    WAVE   SWELL
                       AIR SEA DIR/SP/G            HT/PER HT/PER
                 (UTC) (F)     (DEG/KT/KT) (MB)    (FT/S) (FT/S)
BRANDYWINE LGT   2100   40 40  330/  2/  4 1007.4F
CAPE MAY NJ      2100   40 43  360/  4/  4 1006.8F
LEWES DE         2100   40 43   20/  8/  9 1007.1F
15NM E FENWICK I 2150   38 40              1006.2F   5/11
OCEAN-CITY-INLET 2100   39 40   20/ 10/ 18 1006.3F
WACHAPREAGUE VA  2100   41 49   20/  6/ 11 1007.0F
THOMAS POINT MD  2200                        N/A
COVE POINT MD    2100   38     310/  2/  3 1008.1R
SOLOMONS ISLAND  2106      44                N/A
BISHOPS HEAD MD  2100   40 48  360/  4/  9 1007.3R
PINEY POINT MD   2106           CALM  /  1   N/A
CAMBRIDGE MD     2100   40 45   CALM  /  2 1007.9R
LEWISETTA VA     2100   40 48              1008.0R
RAPPAHANNOCK LGT 2100          360/ 18/ 19 1008.2R
STINGRAY PT      2200   39 44   20/ 12/ 14   N/A     2/ 3
YORK RVR RNG VA  2100   41      20/ 14/ 16 1008.0R
YORKTOWN VA      2106   42 47  340/  8/ 10 1008.5R
DOMINION TERM VA 2100   43      10/  6/  8 1008.8R
KIPTOPEKE VA     2100      49  350/  9/ 11   N/A
CHES BAY BRIDGE  2106   41 44  350/ 12/ 14 1008.2R
CAPE HENRY VA    2100   41     330/ 14/ 15 1007.2R
CHESAPEAKE LGHT  2100   40      20/ 12/ 14 1008.1R
WILLOUBY STN VA  2100           10/ 11/ 13   N/A
S CRANEY ISL VA  2100           30/ 11/ 14 1008.3R
CAPE HENRY BUOY  2128      41                N/A     4/ 6   2/12
1ST LANDING BUOY 2200   41     360/ 17/ 21 1007.5F   3/ 4
OFFSHORE WE BUOY 2111      41                N/A     5/ 7   5/ 7
64NM E OF VA BCH 2150   45 52   10/ 19/ 23 1004.8R   9/ 8   3/10
DUCK PIER NC     2100   41 42   20/ 19/ 22 1005.2F
44056 DUCK FRF   2111      42                N/A     6/ 7   2/11
OREGON INLET NC  2100   41 56  360/ 15/ 24 1005.8R
HATTERAS NC      2106   46 58   10/ 26/ 30 1005.5S
CAPE LOOKOUT NC  2200   46      20/ 21/ 25 1005.1R
$$


USA.gov is the U.S. government's official web portal to all federal, state and local government web resources and services.